Weather History for KSYN - November, 2012

Change the Weather History Date:

Saturday, November 10, 2012

  Actual Average (KLVN) Record (KLVN)
Temperature  
Mean Temperature 58 °F -  
Max Temperature 72 °F 40 °F 69 °F (2012)
Min Temperature 44 °F 27 °F 11 °F (1950)
Degree Days  
Heating Degree Days 7    
Growing Degree Days 8 (Base 50)    
Moisture  
Dew Point 50 °F    
Average Humidity 75    
Maximum Humidity 89    
Minimum Humidity 52    
Precipitation  
Precipitation 0.23 in - - ()
Sea Level Pressure  
Sea Level Pressure 29.63 in    
Wind  
Wind Speed 14 mph (SE)    
Max Wind Speed 20 mph    
Max Gust Speed 37 mph    
Visibility 6 miles    
Events Rain , Thunderstorm    
Averages and records for this station are not official NWS values.
T = Trace of Precipitation, MM = Missing Value Source: NWS Daily Summary

Daily Weather History Graph

Daily Weather History Graph

Search for Another Location

Airport or City:

Trip Planner

Search our weather history database for the weather conditions in past years. The results will help you decide how hot, cold, wet, or windy it might be!

Date:

Astronomy

Nov. 10, 2012 Rise Set
Actual Time 7:02 AM CST 4:49 PM CST
Civil Twilight 6:31 AM CST 5:20 PM CST
Nautical Twilight 5:56 AM CST 5:55 PM CST
Astronomical Twilight 5:22 AM CST 6:29 PM CST
Moon 3:00 AM CST (11/10) 2:43 PM CST (11/10)
Length of Visible Light 10h 49m
Length of Day
9h 46m
Waning Crescent, 14% of the Moon is Illuminated
Nov 10
Waning Crescent
Nov 13
New
Nov 20
First Quarter
Nov 28
Full
Dec 6
Last Quarter

Hourly Weather History & Observations

Time (CST) Temp. Windchill Dew Point Humidity Pressure Visibility Wind Dir Wind Speed Gust Speed Precip Events Conditions
12:12 AM 44.8 °F 38.0 °F 41.0 °F 87% 29.89 in 3.0 mi East 15.0 mph 19.6 mph N/A   Overcast
12:33 AM 45.0 °F 39.3 °F 41.0 °F 86% 29.88 in 3.0 mi East 11.5 mph 20.7 mph N/A   Overcast
12:52 AM 45.1 °F 39.1 °F 41.2 °F 86% 29.87 in 3.0 mi East 12.7 mph 19.6 mph N/A   Overcast
1:12 AM 45.5 °F 38.9 °F 41.4 °F 85% 29.85 in 3.0 mi East 15.0 mph - N/A   Overcast
1:33 AM 45.5 °F 38.3 °F 41.4 °F 85% 29.84 in 3.0 mi East 17.3 mph 25.3 mph N/A   Overcast
1:52 AM 45.9 °F 41.7 °F 41.9 °F 86% 29.85 in 3.0 mi East 8.1 mph 17.3 mph N/A   Overcast
2:12 AM 45.7 °F 39.5 °F 42.1 °F 87% 29.83 in 3.0 mi East 13.8 mph 18.4 mph N/A   Drizzle
2:33 AM 45.7 °F 39.1 °F 42.3 °F 88% 29.82 in 2.5 mi East 15.0 mph 23.0 mph N/A Rain Light Rain
2:52 AM 45.9 °F 38.5 °F 42.4 °F 88% 29.81 in 3.0 mi East 18.4 mph - N/A Rain , Thunderstorm Light Thunderstorms and Rain
3:12 AM 45.9 °F 40.8 °F 42.8 °F 89% 29.81 in 2.5 mi East 10.4 mph 19.6 mph 0.02 in Rain , Thunderstorm Rain
3:32 AM 46.0 °F 39.9 °F 43.0 °F 89% 29.79 in 3.0 mi East 13.8 mph 20.7 mph 0.07 in Rain , Thunderstorm Light Thunderstorms and Rain
3:52 AM 46.4 °F 41.1 °F 43.0 °F 88% 29.79 in 3.0 mi ESE 11.5 mph 19.6 mph 0.07 in Thunderstorm Overcast
4:12 AM 46.4 °F 40.1 °F 43.0 °F 88% 29.78 in 3.0 mi East 15.0 mph 20.7 mph 0.01 in Rain Rain
4:32 AM 46.4 °F 40.4 °F 43.0 °F 88% 29.77 in 2.5 mi ESE 13.8 mph 27.6 mph 0.03 in Rain Light Rain
4:52 AM 46.4 °F 41.1 °F 43.2 °F 88% 29.76 in 3.0 mi ESE 11.5 mph 21.9 mph 0.03 in   Overcast
5:12 AM 46.6 °F - 43.2 °F 88% 29.76 in 3.0 mi ESE 11.5 mph 19.6 mph N/A   Overcast
5:32 AM 46.8 °F - 43.3 °F 88% 29.74 in 3.0 mi East 15.0 mph 18.4 mph N/A   Overcast
5:52 AM 46.9 °F - 43.3 °F 87% 29.73 in 3.0 mi ESE 12.7 mph - N/A   Overcast
6:12 AM 47.3 °F - 43.7 °F 87% 29.72 in 3.0 mi ESE 10.4 mph 19.6 mph N/A   Overcast
6:32 AM 47.5 °F - 43.7 °F 87% 29.72 in 3.0 mi ESE 13.8 mph 23.0 mph N/A   Overcast
6:52 AM 47.7 °F - 43.7 °F 86% 29.72 in 3.0 mi ESE 9.2 mph 18.4 mph N/A   Overcast
7:12 AM 47.8 °F - 43.9 °F 86% 29.71 in 3.0 mi ESE 11.5 mph 19.6 mph N/A   Overcast
7:32 AM 48.2 °F - 44.1 °F 86% 29.70 in 2.0 mi ESE 12.7 mph 19.6 mph N/A   Overcast
7:52 AM 48.6 °F - 44.6 °F 86% 29.70 in 2.0 mi ESE 15.0 mph 23.0 mph N/A   Overcast
8:12 AM 48.9 °F - 44.6 °F 85% 29.70 in 2.0 mi ESE 15.0 mph 25.3 mph N/A   Overcast
8:32 AM 49.1 °F - 45.0 °F 86% 29.69 in 1.8 mi ESE 12.7 mph 20.7 mph N/A   Overcast
8:52 AM 49.5 °F - 45.5 °F 86% 29.67 in 2.0 mi ESE 15.0 mph 23.0 mph N/A   Haze
9:13 AM 50.0 °F - 45.7 °F 85% 29.66 in 2.0 mi ESE 13.8 mph 21.9 mph N/A   Overcast
9:32 AM 51.1 °F - 46.6 °F 85% 29.65 in 2.5 mi SE 12.7 mph 18.4 mph N/A   Overcast
9:52 AM 52.3 °F - 47.3 °F 83% 29.64 in 2.5 mi SE 11.5 mph 19.6 mph N/A   Haze
10:13 AM 53.6 °F - 48.2 °F 82% 29.64 in 3.0 mi SE 11.5 mph 19.6 mph N/A   Haze
10:32 AM 54.9 °F - 49.1 °F 81% 29.63 in 4.0 mi SE 13.8 mph 19.6 mph N/A   Haze
10:52 AM 56.5 °F - 50.2 °F 79% 29.61 in 4.0 mi SE 12.7 mph 21.9 mph N/A   Haze
11:13 AM 58.5 °F - 51.4 °F 77% 29.60 in 5.0 mi SE 12.7 mph 21.9 mph N/A   Haze
11:32 AM 60.3 °F - 52.7 °F 76% 29.59 in 7.0 mi SE 13.8 mph 20.7 mph N/A   Scattered Clouds
11:52 AM 62.2 °F - 54.0 °F 74% 29.58 in 10.0 mi SSE 11.5 mph 18.4 mph N/A   Mostly Cloudy
12:13 PM 64.4 °F - 55.0 °F 72% 29.57 in 10.0 mi SSE 13.8 mph 20.7 mph N/A   Mostly Cloudy
12:32 PM 66.4 °F - 55.8 °F 69% 29.56 in 10.0 mi SSE 19.6 mph 25.3 mph N/A   Scattered Clouds
12:52 PM 67.5 °F - 55.8 °F 66% 29.55 in 10.0 mi South 19.6 mph 25.3 mph N/A   Scattered Clouds
1:13 PM 68.9 °F - 55.6 °F 62% 29.55 in 10.0 mi South 15.0 mph 23.0 mph N/A   Scattered Clouds
1:32 PM 69.3 °F - 55.4 °F 61% 29.54 in 10.0 mi South 15.0 mph 24.2 mph N/A   Clear
1:52 PM 70.0 °F - 55.9 °F 61% 29.54 in 10.0 mi South 17.3 mph 25.3 mph N/A   Clear
2:12 PM 70.9 °F - 55.8 °F 59% 29.53 in 10.0 mi South 16.1 mph 23.0 mph N/A   Clear
2:32 PM 71.6 °F - 56.1 °F 58% 29.52 in 10.0 mi South 12.7 mph 25.3 mph N/A   Clear
2:52 PM 72.5 °F - 55.4 °F 55% 29.52 in 10.0 mi South 10.4 mph 19.6 mph N/A   Clear
3:12 PM 72.9 °F - 54.9 °F 53% 29.51 in 10.0 mi South 11.5 mph 19.6 mph N/A   Clear
3:32 PM 72.7 °F - 54.3 °F 52% 29.51 in 10.0 mi South 16.1 mph 19.6 mph N/A   Clear
3:52 PM 72.1 °F - 54.5 °F 54% 29.52 in 10.0 mi South 13.8 mph 21.9 mph N/A   Clear
4:12 PM 71.2 °F - 53.8 °F 54% 29.51 in 10.0 mi South 9.2 mph - N/A   Clear
4:32 PM 69.6 °F - 53.6 °F 57% 29.51 in 10.0 mi South 9.2 mph - N/A   Clear
4:52 PM 68.7 °F - 53.4 °F 58% 29.50 in 10.0 mi South 8.1 mph - N/A   Scattered Clouds
5:12 PM 67.8 °F - 53.1 °F 59% 29.51 in 10.0 mi SSE 6.9 mph - N/A   Clear
5:32 PM 69.8 °F - 53.4 °F 56% 29.51 in 10.0 mi SSE 9.2 mph - N/A   Clear
5:52 PM 68.2 °F - 54.3 °F 61% 29.52 in 10.0 mi South 11.5 mph - N/A   Clear
6:13 PM 67.3 °F - 54.5 °F 63% 29.53 in 10.0 mi South 13.8 mph - N/A   Scattered Clouds
6:32 PM 67.3 °F - 54.5 °F 63% 29.53 in 10.0 mi South 12.7 mph 20.7 mph N/A   Clear
6:52 PM 66.7 °F - 54.7 °F 65% 29.53 in 10.0 mi South 13.8 mph 18.4 mph N/A   Scattered Clouds
7:13 PM 66.4 °F - 55.4 °F 68% 29.52 in 10.0 mi South 12.7 mph 19.6 mph N/A   Mostly Cloudy
7:32 PM 67.3 °F - 55.8 °F 66% 29.50 in 10.0 mi South 17.3 mph 25.3 mph N/A   Overcast
7:52 PM 67.3 °F - 56.3 °F 68% 29.50 in 10.0 mi South 18.4 mph 21.9 mph N/A   Overcast
8:12 PM 66.4 °F - 55.9 °F 69% 29.49 in 10.0 mi SSE 18.4 mph 26.5 mph N/A   Mostly Cloudy
8:32 PM 66.2 °F - 55.9 °F 69% 29.48 in 10.0 mi SSE 19.6 mph 24.2 mph N/A   Scattered Clouds
8:52 PM 65.8 °F - 55.9 °F 70% 29.48 in 10.0 mi South 17.3 mph 25.3 mph N/A   Clear
9:12 PM 66.2 °F - 55.9 °F 69% 29.49 in 10.0 mi South 17.3 mph 26.5 mph N/A   Scattered Clouds
9:32 PM 66.6 °F - 55.6 °F 68% 29.50 in 10.0 mi South 17.3 mph 25.3 mph N/A   Mostly Cloudy
10:12 PM 66.0 °F - 54.9 °F 67% 29.49 in 10.0 mi South 17.3 mph 27.6 mph N/A   Scattered Clouds
10:32 PM 66.2 °F - 54.7 °F 66% 29.49 in 10.0 mi South 17.3 mph 25.3 mph N/A   Mostly Cloudy
10:52 PM 66.0 °F - 54.5 °F 66% 29.50 in 10.0 mi South 18.4 mph 24.2 mph N/A   Mostly Cloudy
11:13 PM 65.8 °F - 54.5 °F 67% 29.50 in 10.0 mi South 16.1 mph 21.9 mph N/A Thunderstorm Overcast
11:32 PM 63.7 °F - 55.6 °F 75% 29.57 in 7.0 mi West 19.6 mph 36.8 mph 0.05 in Rain Heavy Rain
11:52 PM 57.7 °F - 53.2 °F 85% 29.58 in 7.0 mi SW 10.4 mph - 0.13 in Rain Heavy Rain